Weather History for Kansas City International, MO

Change the Weather History Date:

Thursday, January 3, 2013

  Actual Average Record
Temperature  
Mean Temperature 28 °F 29 °F  
Max Temperature 36 °F 38 °F 65 °F (1997)
Min Temperature 20 °F 20 °F -13 °F (1919)
Degree Days  
Heating Degree Days 37 36  
Month to date heating degree days 130 108  
Since 1 July heating degree days 1968 2150  
Cooling Degree Days 0 0  
Month to date cooling degree days 0 0  
Year to date cooling degree days 0 0  
Moisture  
Dew Point 20 °F    
Average Humidity 72    
Maximum Humidity 88    
Minimum Humidity 56    
Precipitation  
Precipitation 0.00 in 0.03 in 1.39 in (1971)
Month to date precipitation T 0.10  
Year to date precipitation T 0.10  
Snow  
Snow 0.00 in 0.10 in 5.00 in (1973)
Month to date snowfall T 0.4  
Since 1 July snowfall 3.7 6.6  
Snow Depth 1.00 in    
Sea Level Pressure  
Sea Level Pressure 30.38 in    
Wind  
Wind Speed 6 mph (WNW)    
Max Wind Speed 13 mph    
Max Gust Speed 15 mph    
Visibility 10 miles    
Events      
T = Trace of Precipitation, MM = Missing Value Source: NWS Daily Summary

Daily Weather History Graph

Daily Weather History Graph

Search for Another Location

Airport:

Trip Planner

Search our weather history database for the weather conditions in past years. The results will help you decide how hot, cold, wet, or windy it might be!

Date:

Astronomy

Jan. 03, 2013 Rise Set
Actual Time 7:38 AM CST 5:08 PM CST
Civil Twilight 7:08 AM CST 5:38 PM CST
Nautical Twilight 6:35 AM CST 6:11 PM CST
Astronomical Twilight 6:02 AM CST 6:44 PM CST
Moon 11:42 PM CST (1/3) 10:53 AM CST (1/3)
Length of Visible Light 10h 29m
Length of Day
9h 29m
Waning Gibbous, 65% of the Moon is Illuminated
Jan 3
Waning Gibbous
Jan 4
Last Quarter
Jan 11
New
Jan 18
First Quarter
Jan 26
Full

Hourly Weather History & Observations

Time (CST) Temp. Windchill Dew Point Humidity Pressure Visibility Wind Dir Wind Speed Gust Speed Precip Events Conditions
12:53 AM 25.0 °F 18.1 °F 19.0 °F 78% 30.27 in 10.0 mi SW 5.8 mph - N/A   Scattered Clouds
1:53 AM 24.1 °F 17.0 °F 19.9 °F 84% 30.28 in 9.0 mi WSW 5.8 mph - N/A   Partly Cloudy
2:53 AM 25.0 °F 18.1 °F 19.9 °F 81% 30.31 in 9.0 mi West 5.8 mph - N/A   Partly Cloudy
3:53 AM 27.0 °F 21.6 °F 21.9 °F 81% 30.31 in 10.0 mi West 4.6 mph - N/A   Overcast
4:53 AM 28.0 °F 22.8 °F 23.0 °F 81% 30.31 in 10.0 mi West 4.6 mph - N/A   Overcast
5:53 AM 28.0 °F 21.7 °F 23.0 °F 81% 30.31 in 10.0 mi West 5.8 mph - N/A   Overcast
6:53 AM 27.0 °F 20.5 °F 21.9 °F 81% 30.33 in 10.0 mi WSW 5.8 mph - N/A   Partly Cloudy
7:53 AM 25.0 °F 18.1 °F 21.0 °F 85% 30.36 in 7.0 mi West 5.8 mph - N/A   Partly Cloudy
8:53 AM 28.0 °F 21.7 °F 23.0 °F 81% 30.39 in 9.0 mi West 5.8 mph - N/A   Partly Cloudy
9:53 AM 30.0 °F 23.2 °F 23.0 °F 75% 30.42 in 10.0 mi West 6.9 mph - N/A   Mostly Cloudy
10:53 AM 30.9 °F 23.5 °F 24.1 °F 76% 30.43 in 10.0 mi WNW 8.1 mph - N/A   Mostly Cloudy
11:53 AM 33.1 °F 26.1 °F 24.1 °F 70% 30.41 in 10.0 mi NW 8.1 mph - N/A   Mostly Cloudy
12:53 PM 35.1 °F 27.4 °F 24.1 °F 64% 30.39 in 10.0 mi NW 10.4 mph - N/A   Mostly Cloudy
1:15 PM 35.6 °F 28.6 °F 23.0 °F 60% 30.35 in 10.0 mi NNW 9.2 mph - N/A   Scattered Clouds
1:53 PM 34.0 °F 26.0 °F 21.0 °F 59% 30.38 in 10.0 mi NW 10.4 mph - N/A   Scattered Clouds
2:53 PM 34.0 °F 29.8 °F 19.9 °F 56% 30.39 in 10.0 mi WNW 4.6 mph - N/A   Overcast
3:53 PM 32.0 °F 24.2 °F 19.9 °F 61% 30.40 in 10.0 mi NNW 9.2 mph - N/A   Overcast
4:53 PM 30.9 °F 24.3 °F 19.9 °F 64% 30.41 in 10.0 mi NNW 6.9 mph - N/A   Overcast
5:53 PM 30.0 °F 24.1 °F 19.9 °F 66% 30.43 in 10.0 mi NW 5.8 mph - N/A   Overcast
6:53 PM 28.9 °F 22.8 °F 19.9 °F 69% 30.44 in 10.0 mi NNW 5.8 mph - N/A   Overcast
7:53 PM 26.1 °F 20.5 °F 18.0 °F 71% 30.44 in 10.0 mi NNW 4.6 mph - N/A   Mostly Cloudy
8:53 PM 23.0 °F 15.8 °F 16.0 °F 74% 30.43 in 10.0 mi NNW 5.8 mph - N/A   Clear
9:53 PM 23.0 °F - 16.0 °F 74% 30.43 in 10.0 mi Calm Calm - N/A   Clear
10:53 PM 21.0 °F - 15.1 °F 78% 30.43 in 10.0 mi Calm Calm - N/A   Clear
11:53 PM 21.0 °F 16.2 °F 15.1 °F 78% 30.41 in 10.0 mi SSW 3.5 mph - N/A   Clear